Location: Haliburton Scout Reserve
(45.0900°N, 78.3200°W)
Time: 03:37:34
(UTC-04:00)

ZACube-1 - Visible Passes

Search period start: 16 May 2022 00:00
Search period end: 26 May 2022 00:00
Orbit: 581 x 663 km, 97.6° (Epoch: 15 May)

Date Brightness Start Highest point End Pass type
(mag) Time Alt. Az. Time Alt. Az. Time Alt. Az.
17 May ? 04:07:58 10° ENE 04:10:15 14° E 04:12:31 10° SE visible
18 May ? 04:25:08 10° NE 04:28:23 22° E 04:31:37 10° SE visible
19 May ? 04:42:42 10° NNE 04:46:29 34° E 04:50:13 10° SSE visible
20 May ? 05:00:27 10° NNE 05:04:31 53° E 05:08:32 10° S visible
22 May ? 04:02:03 10° ENE 04:03:50 12° E 04:05:37 10° ESE visible
23 May ? 04:18:58 10° NE 04:21:58 19° E 04:24:58 10° SE visible
24 May ? 04:36:25 10° NE 04:40:03 29° E 04:43:40 10° SSE visible
25 May ? 04:54:05 10° NNE 04:58:04 46° E 05:02:04 10° S visible
